Location: La Silve
(44.2414°N, 5.8889°E)
Time: 05:29:01
(UTC+00:00)

Cosmos 371 Rocket - Pass Details

Date: 01 December 2020
Orbit: 685 x 698 km, 74.0° (Epoch: 24 January)

Event Time Altitude Azimuth Distance (km) Brightness Sun altitude
Rises 18:23:02 0° 341° (NNW) 3,090 6.8 -25.2°
Reaches altitude 10° 18:25:23 10° 344° (NNW) 2,167 5.9 -25.6°
Enters shadow 18:27:59 31° 353° (N) 1,209 4.5 -26.0°
